GW0248 Weather Reports


time (UTC)temp
F
wind
direction
speed
knots
gust
knots
rain 1hr
in
rain 24hr
in
rain mn
in
humidity
%
barometer
mb
20260505140501 52 209 2.6 9.6 0.04 0.04 0.04 76 1020.6
20260505125001 50 273 0.0 3.5 0.00 0.00 0.00 83 1020.6
20260505124501 50 340 0.0 3.5 0.00 0.00 0.00 82 1020.7
20260505124001 50 323 0.0 3.5 0.00 0.00 0.00 80 1020.6
20260505123501 50 5 0.9 3.5 0.00 0.00 0.00 77 1020.5
20260505123000 51 5 1.7 6.1 0.00 0.00 0.00 74 1020.5
20260505122000 54 105 3.5 9.6 0.00 0.00 0.00 65 1020.8
20260505121500 54 88 8.7 9.6 0.00 0.00 0.00 61 1020.5
20260505121001 55 67 1.7 7.8 0.00 0.00 0.00 56 1020.3
20260505120501 55 125 1.7 5.2 0.00 0.00 0.00 52 1020.2
20260505115501 55 211 4.3 7.8 0.00 0.00 0.00 51 1020.2
20260505115001 54 205 2.6 8.7 0.00 0.00 0.00 53 1020.2
20260505114500 54 277 6.1 9.6 0.00 0.00 0.00 56 1020.2
20260505114001 54 267 4.3 13.0 0.00 0.00 0.00 59 1020.1
20260505113000 54 254 3.5 9.6 0.00 0.00 0.00 60 1020.9
20260505112001 54 258 3.5 11.3 0.00 0.00 0.00 59 1021.1
20260505111500 54 273 7.8 9.6 0.00 0.00 0.00 59 1021.4
20260505111001 54 284 5.2 9.6 0.00 0.00 0.00 61 1021.4
20260505110501 54 236 4.3 11.3 0.00 0.00 0.00 62 1021.4
20260505101001 54 252 13.9 13.9 0.00 0.00 0.00 62 1021.2
20260505100459 54 30 7.0 11.3 0.00 0.00 0.00 62 1021.4
20260505100003 54 297 6.1 12.2 0.00 0.00 0.00 61 1021.4
20260505095501 54 331 1.7 12.2 0.00 0.00 0.00 61 1021.5
20260505095001 54 243 0.9 11.3 0.00 0.00 0.00 60 1021.4
20260505094501 54 298 3.5 11.3 0.00 0.00 0.00 60 1021.4
20260505093959 55 334 3.5 11.3 0.00 0.00 0.00 58 1021.6
20260505093500 55 316 0.9 13.9 0.00 0.00 0.00 56 1021.6
20260505093000 55 242 6.1 13.9 0.00 0.00 0.00 58 1021.5
20260505092500 54 279 8.7 13.0 0.00 0.00 0.00 59 1021.5
20260505091001 55 297 3.5 12.2 0.00 0.00 0.00 60 1021.9
20260505090501 55 302 6.1 12.2 0.00 0.00 0.00 59 1021.6
20260505090003 55 24 4.3 18.2 0.00 0.00 0.00 57 1021.8
20260505085500 56 242 3.5 18.2 0.00 0.00 0.00 53 1022.3
20260505084959 56 235 10.4 12.2 0.00 0.00 0.00 52 1022.3
20260505084501 56 150 3.5 18.2 0.00 0.00 0.00 52 1021.9
20260505084000 55 253 5.2 18.2 0.00 0.00 0.00 53 1021.6
20260505083500 55 315 5.2 17.4 0.00 0.00 0.00 53 1021.6
20260505083000 55 304 4.3 17.4 0.00 0.00 0.00 53 1021.9
20260505082500 56 337 3.5 11.3 0.00 0.00 0.00 53 1021.9
20260505082000 56 255 3.5 11.3 0.00 0.00 0.00 52 1022.2
20260505081459 56 284 6.1 13.9 0.00 0.00 0.00 52 1022.2
20260505081001 56 282 7.8 13.9 0.00 0.00 0.00 52 1022.1
20260505080500 56 332 4.3 13.9 0.00 0.00 0.00 52 1022.2
20260505075500 56 285 8.7 13.9 0.00 0.00 0.00 50 1022.1
20260505075000 56 290 8.7 13.0 0.00 0.00 0.00 49 1022.0
20260505074501 56 340 2.6 13.9 0.00 0.00 0.00 48 1022.3
20260505074000 56 268 9.6 13.9 0.00 0.00 0.00 47 1022.3
20260505073500 56 338 6.1 13.9 0.00 0.00 0.00 47 1022.2
20260505073001 57 241 6.1 13.0 0.00 0.00 0.00 46 1022.6
20260505072501 57 188 6.1 17.4 0.00 0.00 0.00 45 1022.4
20260505072000 57 317 9.6 13.0 0.00 0.00 0.00 45 1022.3
20260505071500 57 216 5.2 11.3 0.00 0.00 0.00 43 1022.2
20260505071000 57 283 3.5 13.0 0.00 0.00 0.00 43 1022.3
20260505070500 57 223 5.2 13.9 0.00 0.00 0.00 41 1022.5
20260505070007 57 298 6.1 18.2 0.00 0.00 0.00 40 1022.5
20260505065502 57 281 13.0 18.2 0.00 0.00 0.00 40 1022.5
20260505065003 57 212 0.9 13.9 0.00 0.00 0.00 40 1022.5
20260505064503 57 310 13.0 20.0 0.00 0.00 0.00 40 1022.6
20260505063002 57 314 6.1 18.2 0.00 0.00 0.00 42 1022.5
20260505062502 57 271 5.2 18.2 0.00 0.00 0.00 41 1022.5
20260505062003 57 262 5.2 18.2 0.00 0.00 0.00 42 1022.8
20260505061504 57 186 18.2 18.2 0.00 0.00 0.00 41 1022.7
20260505061003 57 147 4.3 13.0 0.00 0.00 0.00 42 1022.4
20260505060002 57 227 4.3 12.2 0.00 0.00 0.00 42 1022.8
20260505055003 57 261 4.3 12.2 0.00 0.00 0.00 43 1022.9
20260505054502 56 273 2.6 10.4 0.00 0.00 0.00 45 1023.1
20260505054003 56 331 1.7 2.6 0.00 0.00 0.00 46 1023.2
20260505053503 56 122 0.0 6.1 0.00 0.00 0.00 45 1023.2
20260505052503 56 130 0.0 3.5 0.00 0.00 0.00 48 1023.0
20260505052002 56 355 0.0 7.0 0.00 0.00 0.00 47 1023.1
20260505051504 56 355 0.0 7.0 0.00 0.00 0.00 47 1023.4
20260505051002 56 343 1.7 6.1 0.00 0.00 0.00 48 1023.5
20260505050503 56 40 3.5 5.2 0.00 0.00 0.00 48 1023.7
20260505041503 58 302 4.3 8.7 0.00 0.00 0.00 40 1024.0
20260505041003 58 333 0.9 8.7 0.00 0.00 0.00 40 1023.9
20260505040503 58 331 1.7 7.8 0.00 0.00 0.00 39 1023.7
20260505040004 58 329 1.7 9.6 0.00 0.00 0.00 39 1023.5
20260505035503 58 360 2.6 9.6 0.00 0.00 0.00 38 1023.5
20260505034502 59 276 2.6 10.4 0.00 0.00 0.00 38 1023.5
20260505034003 59 51 1.7 8.7 0.00 0.00 0.00 38 1023.4
20260505033502 59 282 4.3 8.7 0.00 0.00 0.00 38 1023.5
20260505033002 59 277 0.9 6.1 0.00 0.00 0.00 38 1023.4
20260505032502 59 287 1.7 6.1 0.00 0.00 0.00 38 1023.4
20260505032003 59 310 3.5 7.0 0.00 0.00 0.00 38 1023.2
20260505031503 59 295 3.5 7.0 0.00 0.00 0.00 37 1023.2
20260505031003 59 211 0.0 7.0 0.00 0.00 0.00 37 1023.1
20260505030502 59 280 7.0 7.8 0.00 0.00 0.00 37 1023.1
20260505030005 60 313 1.7 8.7 0.00 0.00 0.00 36 1022.9
20260505025002 60 34 3.5 7.8 0.00 0.00 0.00 36 1022.8
20260505024502 61 260 0.9 11.3 0.00 0.00 0.00 35 1022.7
20260505024003 61 234 1.7 11.3 0.00 0.00 0.00 35 1022.7
20260505022002 62 291 0.0 6.1 0.00 0.00 0.00 36 1022.7
20260505021502 62 294 0.9 6.1 0.00 0.00 0.00 36 1022.6
20260505021002 62 330 1.7 5.2 0.00 0.00 0.00 36 1022.5
20260505020502 62 322 4.3 5.2 0.00 0.00 0.00 36 1022.3
20260505020006 63 5 1.7 4.3 0.00 0.00 0.00 35 1022.3
20260505015502 63 333 0.0 8.7 0.00 0.00 0.00 34 1022.3
20260505015002 64 323 3.5 8.7 0.00 0.00 0.00 34 1022.1
20260505014001 64 282 3.5 8.7 0.00 0.00 0.00 32 1022.4
20260505013501 64 299 6.1 7.8 0.00 0.00 0.00 33 1022.3
20260505013002 65 304 1.7 7.8 0.00 0.00 0.00 32 1022.3
20260505012501 65 5 0.9 8.7 0.00 0.00 0.00 33 1022.5
20260505012002 65 296 2.6 8.7 0.00 0.00 0.00 32 1022.4
20260505011501 65 339 6.1 7.8 0.00 0.00 0.00 32 1022.5
20260505011001 65 249 0.9 7.8 0.00 0.00 0.00 31 1022.5
20260505010501 66 241 4.3 11.3 0.00 0.00 0.00 31 1022.5
20260505005503 66 258 6.1 11.3 0.00 0.00 0.00 29 1022.4
20260505005001 66 28 8.7 15.6 0.00 0.00 0.00 28 1022.5
20260505004501 67 284 3.5 15.6 0.00 0.00 0.00 27 1022.5
20260505004002 68 316 1.7 11.3 0.00 0.00 0.00 26 1022.3
20260505002503 69 269 6.1 9.6 0.00 0.00 0.00 23 1022.3
20260505001001 69 293 3.5 11.3 0.00 0.00 0.00 24 1022.3
20260505000501 70 360 4.3 13.0 0.00 0.00 0.00 24 1022.3
20260505000005 70 340 6.1 13.0 0.00 0.00 0.00 23 1022.5
20260504235501 70 303 4.3 10.4 0.00 0.00 0.00 22 1022.3
20260504235001 71 313 3.5 10.4 0.00 0.00 0.00 21 1022.1
20260504234502 71 342 6.1 10.4 0.00 0.00 0.00 21 1022.0
20260504234002 71 276 2.6 13.9 0.00 0.00 0.00 21 1022.0
20260504233502 71 338 3.5 13.9 0.00 0.00 0.00 20 1022.0
20260504233002 72 292 8.7 9.6 0.00 0.00 0.00 20 1021.8
20260504232501 71 265 7.8 9.6 0.00 0.00 0.00 20 1021.7
20260504232002 72 330 9.6 9.6 0.00 0.00 0.00 20 1021.6
20260504231501 72 61 3.5 10.4 0.00 0.00 0.00 19 1021.6
20260504231002 72 286 4.3 13.0 0.00 0.00 0.00 19 1021.6
20260504230501 72 299 6.1 13.0 0.00 0.00 0.00 19 1021.8
20260504230005 72 274 7.8 19.1 0.00 0.00 0.00 19 1021.9
20260504225002 73 331 7.8 17.4 0.00 0.00 0.00 19 1022.1
20260504224003 73 169 9.6 13.9 0.00 0.00 0.00 20 1022.2
20260504223501 74 231 6.1 10.4 0.00 0.00 0.00 20 1022.0
20260504223002 74 257 3.5 10.4 0.00 0.00 0.00 21 1021.9
20260504222002 73 282 13.0 17.4 0.00 0.00 0.00 21 1022.1
20260504221002 73 221 16.5 23.5 0.00 0.00 0.00 21 1022.2
20260504220502 73 261 3.5 20.0 0.00 0.00 0.00 21 1022.2
20260504220005 73 247 2.6 20.0 0.00 0.00 0.00 22 1022.1
20260504215501 73 173 7.8 19.1 0.00 0.00 0.00 21 1022.3
20260504215002 74 223 5.2 17.4 0.00 0.00 0.00 22 1022.2
20260504214501 73 240 7.0 17.4 0.00 0.00 0.00 23 1022.1
20260504214002 74 247 11.3 13.9 0.00 0.00 0.00 23 1022.2
20260504212515 74 253 5.2 13.0 0.00 0.00 0.00 24 1022.3
20260504212001 74 288 7.0 9.6 0.00 0.00 0.00 23 1022.4
20260504211509 74 261 5.2 15.6 0.00 0.00 0.00 24 1022.5
20260504211003 73 286 8.7 15.6 0.00 0.00 0.00 24 1022.5
20260504210004 73 229 8.7 11.3 0.00 0.00 0.00 26 1022.8
20260504205501 73 227 6.1 18.2 0.00 0.00 0.00 25 1022.7
20260504205001 74 281 8.7 18.2 0.00 0.00 0.00 24 1023.2
20260504204501 75 225 6.1 16.5 0.00 0.00 0.00 24 1023.2
20260504204001 74 238 2.6 16.5 0.00 0.00 0.00 24 1023.1
20260504202501 74 232 8.7 18.2 0.00 0.00 0.00 23 1023.2
20260504202001 74 227 8.7 17.4 0.00 0.00 0.00 22 1023.3
20260504201501 74 211 13.0 17.4 0.00 0.00 0.00 22 1023.2
20260504201001 73 268 7.0 13.0 0.00 0.00 0.00 22 1023.1
20260504195501 73 241 7.0 16.5 0.00 0.00 0.00 22 1023.3
20260504195001 73 169 7.8 16.5 0.00 0.00 0.00 23 1023.3
20260504194002 73 232 9.6 17.4 0.00 0.00 0.00 20 1023.5
20260504193501 73 176 2.6 22.6 0.00 0.00 0.00 20 1023.3
20260504193002 73 246 12.2 22.6 0.00 0.00 0.00 20 1023.3
20260504192501 73 234 11.3 16.5 0.00 0.00 0.00 19 1023.5
20260504192003 73 267 8.7 16.5 0.00 0.00 0.00 22 1023.4
20260504191501 73 160 10.4 18.2 0.00 0.00 0.00 21 1023.5
20260504191001 73 196 10.4 18.2 0.00 0.00 0.00 20 1023.7
20260504190501 73 194 3.5 16.5 0.00 0.00 0.00 21 1023.7
20260504190010 73 246 7.8 19.1 0.00 0.00 0.00 20 1023.8
20260504185502 72 215 5.2 20.9 0.00 0.00 0.00 21 1023.8
20260504185001 73 183 8.7 20.9 0.00 0.00 0.00 20 1023.6
20260504183501 72 159 12.2 19.1 0.00 0.00 0.00 20 1023.6
20260504183009 73 218 6.1 19.1 0.00 0.00 0.00 20 1024.0
20260504182001 72 227 4.3 22.6 0.00 0.00 0.00 19 1024.0
20260504181501 72 197 7.0 15.6 0.00 0.00 0.00 19 1024.0
20260504181001 72 238 5.2 17.4 0.00 0.00 0.00 19 1024.1
20260504180501 72 286 8.7 18.2 0.00 0.00 0.00 21 1023.9
20260504180005 72 189 3.5 19.1 0.00 0.00 0.00 21 1023.9
20260504175501 72 178 4.3 19.1 0.00 0.00 0.00 21 1023.8
20260504175001 72 145 3.5 11.3 0.00 0.00 0.00 22 1023.8
20260504174501 72 250 1.7 13.9 0.00 0.00 0.00 21 1023.7
20260504174001 72 288 6.1 13.9 0.00 0.00 0.00 21 1023.9
20260504173501 72 242 7.0 13.0 0.00 0.00 0.00 20 1024.0
20260504173001 72 227 3.5 11.3 0.00 0.00 0.00 22 1024.0
20260504172501 71 252 4.3 12.2 0.00 0.00 0.00 22 1024.0
20260504172001 72 197 4.3 12.2 0.00 0.00 0.00 23 1024.1
20260504171501 72 238 6.1 13.9 0.00 0.00 0.00 24 1024.1
20260504170501 71 265 4.3 12.2 0.00 0.00 0.00 21 1024.1
20260504150500 64 198 6.1 12.2 0.00 0.00 0.00 29 1024.1